Location: Tamazert
(32.6352°N, 5.2072°W)
Time: 19:08:44
(UTC+00:00)

deb Explorer IX - Pass Details

Date: 12 October 2022
Orbit: 533 x 1057 km, 38.8° (Epoch: 06 December)

Event Time Altitude Azimuth Distance (km) Brightness Sun altitude
Exits shadow 04:08:07 31° 37° (NE) 1,035 ? -29.0°
Drops below altitude 10° 04:10:52 10° 62° (ENE) 1,964 ? -28.4°
Sets 04:13:26 0° 69° (ENE) 2,949 ? -27.9°
